Date String (YYYY-MM-DD hh:mm:ss) UTC,Instrument flags,absolute air pressure of the measurement (hPa),sample flow rate (lpm),inlet stack bypass flow (lpm),air temperature of the measurement (°C),ambient temperature measured by the external sensor (°C),aerosol sample conditioner tube jacket temperature (°C),OPC LED temperature (°C),internal box temperature (°C),relative humidity of the measurement (%),span deviation,mass concentration of particles derived from Lorenz-Mie calculation of OPC scattering (μg/m³),mass concentration of particles derived from Lorenz-Mie calculation of OPC scattering (μg/m³),mass concentration of particles derived from Lorenz-Mie calculation of OPC scattering (μg/m³)
DateTimeUTC,F1_M11,P_M11,Q1_M11,Q2_M11,T1_M11,T2_M11,T3_M11,T4_M11,T5_M11,U1_M11,ZSPAN_M11,X0_M11,X2_M11,X1_M11
2024-06-02 20:00:00,SystemResetWarning,0823.1,4.99,000.00,029.1,028.5,000.0,037.3,031.0,019.6,0000.0,0010.56,0004.43,0003.51
2024-06-02 20:01:00,SystemResetWarning,0822.8,5.00,000.00,029.2,028.7,000.0,037.3,031.1,019.7,0000.0,0011.76,0004.42,0003.52
2024-06-02 20:02:00,SystemResetWarning,0822.8,5.00,000.00,029.3,028.8,000.0,037.3,031.2,020.6,0000.0,0012.54,0004.44,0003.52
2024-06-02 20:03:00,SystemResetWarning,0822.7,5.00,000.00,029.4,029.0,000.0,037.4,031.2,020.6,0000.0,0013.39,0004.45,0003.53
2024-06-02 20:04:00,SystemResetWarning,0822.8,5.00,000.00,029.4,028.9,000.0,037.4,031.2,020.0,0000.0,0013.66,0004.45,0003.53
2024-06-02 20:05:00,SystemResetWarning,0822.7,4.99,000.00,029.2,027.0,000.0,037.5,030.3,019.5,0000.0,0014.52,0004.50,0003.55
2024-06-02 20:06:00,SystemResetWarning,0822.8,5.01,000.00,028.8,025.4,000.0,037.5,029.4,020.5,0000.0,0015.04,0004.49,0003.56
2024-06-02 20:07:00,SystemResetWarning,0822.6,5.01,000.00,028.6,025.9,000.0,037.5,029.6,021.3,0000.0,0015.95,0004.53,0003.58
2024-06-02 20:08:00,SystemResetWarning,0822.8,4.99,000.00,028.6,026.3,000.0,037.4,029.8,021.5,0000.0,0016.89,0004.57,0003.60
2024-06-02 20:09:00,SystemResetWarning,0822.6,5.00,000.00,028.7,026.8,000.0,037.3,030.1,021.9,0000.0,0017.17,0004.60,0003.63
2024-06-02 20:10:00,SystemResetWarning,0822.6,4.99,000.00,028.7,027.2,000.0,037.2,030.3,022.3,0000.0,0018.45,0004.61,0003.66
2024-06-02 20:11:00,SystemResetWarning,0822.7,5.00,000.00,028.8,027.6,000.0,037.2,030.5,022.1,0000.0,0018.46,0004.58,0003.68
2024-06-02 20:12:00,SystemResetWarning,0822.6,5.01,000.00,028.9,027.9,000.0,037.2,030.6,022.2,0000.0,0017.14,0004.59,0003.70
2024-06-02 20:13:00,SystemResetWarning,0822.8,5.00,000.00,029.0,028.2,000.0,037.2,030.8,021.9,0000.0,0016.42,0004.59,0003.73
2024-06-02 20:14:00,SystemResetWarning,0822.9,5.00,000.00,029.0,028.4,000.0,037.2,030.9,021.4,0000.0,0015.85,0004.60,0003.74
2024-06-02 20:15:00,SystemResetWarning,0822.6,4.99,000.00,029.1,028.6,000.0,037.2,031.0,020.7,0000.0,0016.89,0004.63,0003.76
2024-06-02 20:16:00,SystemResetWarning,0822.6,5.00,000.00,029.2,028.8,000.0,037.3,031.1,021.4,0000.0,0017.08,0004.60,0003.77
2024-06-02 20:17:00,SystemResetWarning,0822.4,5.00,000.00,029.3,028.9,000.0,037.3,031.2,021.8,0000.0,0017.46,0004.63,0003.78
2024-06-02 20:18:00,SystemResetWarning,0822.4,4.99,000.00,029.4,029.1,000.0,037.4,031.3,022.2,0000.0,0016.54,0004.66,0003.79
2024-06-02 20:19:00,SystemResetWarning,0822.5,4.99,000.00,029.4,028.9,000.0,037.4,031.2,020.6,0000.0,0015.61,0004.67,0003.80
2024-06-02 20:20:00,SystemResetWarning,0822.4,5.00,000.00,029.2,026.9,000.0,037.5,030.2,018.7,0000.0,0015.53,0004.65,0003.79
2024-06-02 20:21:00,SystemResetWarning,0822.4,5.00,000.00,028.8,025.4,000.0,037.5,029.4,018.1,0000.0,0014.88,0004.61,0003.76
2024-06-02 20:22:00,SystemResetWarning,0822.4,5.01,000.00,028.6,025.9,000.0,037.5,029.6,018.2,0000.0,0015.38,0004.61,0003.73
2024-06-02 20:23:00,SystemResetWarning,0822.4,5.01,000.00,028.6,026.3,000.0,037.3,029.8,019.2,0000.0,0015.75,0004.59,0003.70
2024-06-02 20:24:00,SystemResetWarning,0822.7,4.98,000.00,028.7,026.8,000.0,037.3,030.1,019.8,0000.0,0016.13,0004.56,0003.67
2024-06-02 20:25:00,SystemResetWarning,0822.8,5.00,000.00,028.7,027.2,000.0,037.2,030.3,018.7,0000.0,0016.60,0004.58,0003.65
2024-06-02 20:26:00,SystemResetWarning,0822.6,5.01,000.00,028.8,027.6,000.0,037.2,030.5,019.6,0000.0,0017.09,0004.53,0003.63
2024-06-02 20:27:00,SystemResetWarning,0822.8,4.99,000.00,028.9,028.0,000.0,037.2,030.6,019.2,0000.0,0016.92,0004.56,0003.61
2024-06-02 20:28:00,SystemResetWarning,0822.7,4.99,000.00,029.0,028.3,000.0,037.2,030.8,020.1,0000.0,0016.67,0004.58,0003.61
2024-06-02 20:29:00,SystemResetWarning,0823.1,5.00,000.00,029.1,028.5,000.0,037.2,030.9,020.5,0000.0,0016.88,0004.53,0003.61
2024-06-02 20:30:00,SystemResetWarning,0822.7,5.01,000.00,029.2,028.7,000.0,037.2,031.0,020.1,0000.0,0016.97,0004.48,0003.61
2024-06-02 20:31:00,SystemResetWarning,0822.5,5.01,000.00,029.2,028.8,000.0,037.3,031.1,019.4,0000.0,0016.63,0004.52,0003.61
2024-06-02 20:32:00,SystemResetWarning,0822.4,5.01,000.00,029.3,029.0,000.0,037.3,031.2,018.7,0000.0,0016.13,0004.55,0003.62
2024-06-02 20:33:00,SystemResetWarning,0822.4,4.98,000.00,029.4,028.6,000.0,037.4,031.0,019.1,0000.0,0015.56,0004.57,0003.64
2024-06-02 20:34:00,SystemResetWarning,0822.3,5.01,000.00,029.1,026.4,000.0,037.5,029.9,017.5,0000.0,0015.40,0004.58,0003.64
2024-06-02 20:35:00,SystemResetWarning,0822.2,5.01,000.00,028.7,025.3,000.0,037.5,029.4,018.0,0000.0,0014.95,0004.58,0003.64
2024-06-02 20:36:00,SystemResetWarning,0822.3,5.01,000.00,028.6,025.9,000.0,037.4,029.6,017.7,0000.0,0014.80,0004.53,0003.63
2024-06-02 20:37:00,SystemResetWarning,0822.3,4.99,000.00,028.6,026.4,000.0,037.3,029.9,018.4,0000.0,0013.10,0004.54,0003.64
2024-06-02 20:38:00,SystemResetWarning,0822.2,5.00,000.00,028.6,026.8,000.0,037.2,030.1,017.7,0000.0,0012.67,0004.55,0003.63
2024-06-02 20:39:00,SystemResetWarning,0822.2,5.00,000.00,028.7,027.3,000.0,037.2,030.3,017.6,0000.0,0012.08,0004.56,0003.62
2024-06-02 20:40:00,SystemResetWarning,0822.3,5.01,000.00,028.8,027.7,000.0,037.1,030.5,018.0,0000.0,0011.94,0004.58,0003.60
2024-06-02 20:41:00,SystemResetWarning,0822.2,5.00,000.00,028.9,028.0,000.0,037.1,030.6,018.8,0000.0,0011.85,0004.59,0003.57
2024-06-02 20:42:00,SystemResetWarning,0822.2,4.98,000.00,029.0,028.2,000.0,037.1,030.8,018.6,0000.0,0011.63,0004.54,0003.56
2024-06-02 20:43:00,SystemResetWarning,0822.2,5.00,000.00,029.0,028.5,000.0,037.1,030.9,018.1,0000.0,0011.32,0004.52,0003.57
2024-06-02 20:44:00,SystemResetWarning,0822.2,5.00,000.00,029.1,028.7,000.0,037.2,031.0,018.2,0000.0,0010.96,0004.48,0003.57
2024-06-02 20:45:00,SystemResetWarning,0822.2,5.00,000.00,029.2,028.8,000.0,037.2,031.1,018.4,0000.0,0010.83,0004.46,0003.57
2024-06-02 20:46:00,SystemResetWarning,0822.2,5.00,000.00,029.3,029.0,000.0,037.3,031.2,019.2,0000.0,0011.20,0004.43,0003.58
2024-06-02 20:47:00,SystemResetWarning,0822.3,4.99,000.00,029.4,028.4,000.0,037.4,030.9,019.0,0000.0,0011.14,0004.46,0003.59
2024-06-02 20:48:00,SystemResetWarning,0822.2,5.01,000.00,029.0,026.1,000.0,037.4,029.8,018.7,0000.0,0011.38,0004.46,0003.59
2024-06-02 20:49:00,SystemResetWarning,0822.1,5.00,000.00,028.6,025.4,000.0,037.4,029.4,019.1,0000.0,0012.33,0004.46,0003.61
2024-06-02 20:50:00,SystemResetWarning,0822.2,5.02,000.00,028.6,025.9,000.0,037.3,029.6,019.1,0000.0,0012.49,0004.46,0003.62
2024-06-02 20:51:00,SystemResetWarning,0822.2,4.99,000.00,028.6,026.4,000.0,037.2,029.9,019.6,0000.0,0012.14,0004.46,0003.63
2024-06-02 20:52:00,SystemResetWarning,0822.2,5.00,000.00,028.6,026.9,000.0,037.2,030.1,018.6,0000.0,0012.95,0004.39,0003.62
2024-06-02 20:53:00,SystemResetWarning,0822.3,5.00,000.00,028.7,027.3,000.0,037.1,030.3,017.8,0000.0,0013.49,0004.39,0003.61
2024-06-02 20:54:00,SystemResetWarning,0822.2,4.99,000.00,028.8,027.7,000.0,037.1,030.5,020.0,0000.0,0014.34,0004.39,0003.60
2024-06-02 20:55:00,SystemResetWarning,0822.2,5.00,000.00,028.9,028.0,000.0,037.1,030.7,020.3,0000.0,0014.35,0004.41,0003.59
2024-06-02 20:56:00,SystemResetWarning,0822.3,5.00,000.00,028.9,028.2,000.0,037.1,030.8,020.9,0000.0,0014.33,0004.46,0003.59
2024-06-02 20:57:00,SystemResetWarning,0822.3,5.01,000.00,029.0,028.4,000.0,037.1,030.9,021.1,0000.0,0014.55,0004.53,0003.61
2024-06-02 20:58:00,SystemResetWarning,0822.2,5.00,000.00,029.1,028.6,000.0,037.2,031.0,019.6,0000.0,0015.27,0004.61,0003.63
2024-06-02 20:59:00,SystemResetWarning,0822.2,5.00,000.00,029.2,028.8,000.0,037.2,031.1,019.6,0000.0,0014.99,0004.61,0003.63
